| time (UTC) | temp C | wind direction | speed KPH | gust KPH | rain 1hr cm | rain 24hr cm | rain mn cm | humidity % | barometer mb |
| 20260506115130 | 23 | 292 | 3.2 | 8.0 | 0.00 | 0.00 | 0.00 | 33 | 1111.0 |
| 20260506114129 | 22 | 315 | 0.0 | 3.2 | 0.00 | 0.00 | 0.00 | 32 | 1111.0 |
| 20260506113128 | 23 | 270 | 9.7 | 9.7 | 0.00 | 0.00 | 0.00 | 31 | 1111.0 |
| 20260506112128 | 24 | 270 | 6.4 | 6.4 | 0.00 | 0.00 | 0.00 | 31 | 1111.0 |
| 20260506111127 | 25 | 315 | 6.4 | 6.4 | 0.00 | 0.00 | 0.00 | 32 | 1111.0 |
| 20260506110127 | 25 | 292 | 0.0 | 1.6 | 0.00 | 0.00 | 0.00 | 32 | 1111.0 |
| 20260506105126 | 25 | 0 | 1.6 | 1.6 | 0.00 | 0.00 | 0.00 | 32 | 1111.0 |
| 20260506104126 | 23 | 112 | 0.0 | 0.0 | 0.00 | 0.00 | 0.00 | 33 | 1111.0 |
| 20260506103125 | 23 | 315 | 3.2 | 3.2 | 0.00 | 0.00 | 0.00 | 33 | 1111.0 |
| 20260506102124 | 23 | 22 | 0.0 | 1.6 | 0.00 | 0.00 | 0.00 | 32 | 1111.0 |
| 20260506101124 | 25 | 292 | 4.8 | 4.8 | 0.00 | 0.00 | 0.00 | 31 | 1111.0 |
| 20260506100123 | 25 | 45 | 0.0 | 4.8 | 0.00 | 0.00 | 0.00 | 31 | 1111.0 |
| 20260506095123 | 25 | 337 | 0.0 | 1.6 | 0.00 | 0.00 | 0.00 | 30 | 1111.0 |
| 20260506094122 | 25 | 337 | 8.0 | 8.0 | 0.00 | 0.00 | 0.00 | 31 | 1111.0 |
| 20260506093122 | 25 | 112 | 1.6 | 6.4 | 0.00 | 0.00 | 0.00 | 33 | 1111.0 |
| 20260506092121 | 25 | 22 | 1.6 | 6.4 | 0.00 | 0.00 | 0.00 | 35 | 1111.0 |
| 20260506091121 | 24 | 315 | 0.0 | 6.4 | 0.00 | 0.00 | 0.00 | 35 | 1111.0 |
| 20260506090120 | 24 | 67 | 3.2 | 3.2 | 0.00 | 0.00 | 0.00 | 34 | 1111.0 |
| 20260506085119 | 24 | 315 | 1.6 | 1.6 | 0.00 | 0.00 | 0.00 | 38 | 1111.0 |
| 20260506084119 | 23 | 67 | 0.0 | 3.2 | 0.00 | 0.00 | 0.00 | 37 | 1111.0 |
| 20260506083118 | 23 | 337 | 0.0 | 3.2 | 0.00 | 0.00 | 0.00 | 38 | 1111.0 |
| 20260506082118 | 22 | 337 | 0.0 | 3.2 | 0.00 | 0.00 | 0.00 | 38 | 1111.0 |
| 20260506081117 | 22 | 45 | 3.2 | 3.2 | 0.00 | 0.00 | 0.00 | 42 | 1111.0 |
| 20260506080116 | 21 | 112 | 6.4 | 6.4 | 0.00 | 0.00 | 0.00 | 44 | 1111.0 |
| 20260506073115 | 19 | 22 | 0.0 | 0.0 | 0.00 | 0.00 | 0.00 | 47 | 1111.0 |
| 20260506072114 | 18 | 22 | 0.0 | 3.2 | 0.00 | 0.00 | 0.00 | 48 | 1111.0 |
| 20260506071114 | 17 | 45 | 0.0 | 0.0 | 0.00 | 0.00 | 0.00 | 50 | 1111.0 |
| 20260506070113 | 17 | 22 | 0.0 | 1.6 | 0.00 | 0.00 | 0.00 | 52 | 1111.0 |
| 20260506062111 | 14 | 22 | 0.0 | 0.0 | 0.00 | 0.00 | 0.00 | 56 | 1111.0 |
| 20260506061110 | 13 | 112 | 0.0 | 0.0 | 0.00 | 0.00 | 0.00 | 57 | 1111.0 |
| 20260506061048 | 13 | 112 | 0.0 | 0.0 | 0.00 | 0.00 | 0.00 | 57 | 1111.0 |
| 20260506060110 | 12 | 135 | 0.0 | 0.0 | 0.00 | 0.00 | 0.00 | 59 | 1111.0 |
| 20260506051107 | 9 | 180 | 0.0 | 0.0 | 0.00 | 0.00 | 0.00 | 68 | 1111.0 |
| 20260506050106 | 8 | 180 | 0.0 | 0.0 | 0.00 | 0.00 | 0.00 | 69 | 1111.0 |
| 20260506045106 | 7 | 180 | 0.0 | 1.6 | 0.00 | 0.00 | 0.00 | 71 | 1111.0 |
| 20260506044105 | 6 | 180 | 0.0 | 0.0 | 0.00 | 0.00 | 0.00 | 72 | 1111.0 |
| 20260506043104 | 5 | 180 | 0.0 | 0.0 | 0.00 | 0.00 | 0.00 | 73 | 1111.0 |
| 20260506042104 | 5 | 180 | 0.0 | 0.0 | 0.00 | 0.00 | 0.00 | 74 | 1111.0 |
| 20260506041103 | 4 | 180 | 0.0 | 0.0 | 0.00 | 0.00 | 0.00 | 77 | 1111.0 |
| 20260506035102 | 0 | 180 | 0.0 | 1.6 | 0.00 | 0.00 | 0.00 | 79 | 1111.0 |
| 20260506034102 | 0 | 180 | 0.0 | 0.0 | 0.00 | 0.00 | 0.00 | 74 | 1111.0 |
| 20260506033101 | 0 | 180 | 0.0 | 0.0 | 0.00 | 0.00 | 0.00 | 74 | 1111.0 |
| 20260506032100 | 0 | 180 | 0.0 | 0.0 | 0.00 | 0.00 | 0.00 | 73 | 1111.0 |
| 20260506031100 | 0 | 180 | 0.0 | 0.0 | 0.00 | 0.00 | 0.00 | 73 | 1111.0 |
| 20260506030059 | 0 | 180 | 0.0 | 0.0 | 0.00 | 0.00 | 0.00 | 74 | 1111.0 |
| 20260506025059 | 0 | 180 | 1.6 | 1.6 | 0.00 | 0.00 | 0.00 | 73 | 1111.0 |
| 20260506023058 | 0 | 180 | 0.0 | 0.0 | 0.00 | 0.00 | 0.00 | 72 | 1111.0 |
| 20260506022057 | 0 | 180 | 0.0 | 0.0 | 0.00 | 0.00 | 0.00 | 72 | 1111.0 |
| 20260506021057 | 0 | 180 | 0.0 | 1.6 | 0.00 | 0.00 | 0.00 | 72 | 1111.0 |
| 20260506020056 | 0 | 180 | 0.0 | 0.0 | 0.00 | 0.00 | 0.00 | 71 | 1111.0 |
| 20260506015055 | 0 | 180 | 0.0 | 0.0 | 0.00 | 0.00 | 0.00 | 71 | 1111.0 |
| 20260506014055 | 0 | 180 | 0.0 | 0.0 | 0.00 | 0.00 | 0.00 | 71 | 1111.0 |
| 20260506013054 | 0 | 180 | 0.0 | 1.6 | 0.00 | 0.00 | 0.00 | 70 | 1111.0 |
| 20260506012054 | 1 | 180 | 0.0 | 1.6 | 0.00 | 0.00 | 0.00 | 70 | 1111.0 |
| 20260506011053 | 1 | 180 | 0.0 | 0.0 | 0.00 | 0.00 | 0.00 | 69 | 1111.0 |
| 20260506010053 | 1 | 180 | 0.0 | 0.0 | 0.00 | 0.00 | 0.00 | 69 | 1111.0 |
| 20260506005052 | 1 | 180 | 0.0 | 0.0 | 0.00 | 0.00 | 0.00 | 69 | 1111.0 |
| 20260506004051 | 1 | 180 | 0.0 | 0.0 | 0.00 | 0.00 | 0.00 | 69 | 1111.0 |
| 20260506003051 | 1 | 180 | 1.6 | 1.6 | 0.00 | 0.00 | 0.00 | 68 | 1111.0 |
| 20260506002050 | 1 | 180 | 0.0 | 0.0 | 0.00 | 0.00 | 0.00 | 68 | 1111.0 |
| 20260506001050 | 2 | 180 | 1.6 | 1.6 | 0.00 | 0.00 | 0.00 | 68 | 1111.0 |
| 20260506000049 | 2 | 180 | 0.0 | 0.0 | 0.00 | 0.00 | 0.00 | 67 | 1111.0 |
| 20260505235049 | 2 | 180 | 1.6 | 1.6 | 0.00 | 0.00 | 0.00 | 67 | 1111.0 |
| 20260505234048 | 2 | 180 | 0.0 | 0.0 | 0.00 | 0.00 | 0.00 | 66 | 1111.0 |
| 20260505233047 | 2 | 180 | 0.0 | 0.0 | 0.00 | 0.00 | 0.00 | 66 | 1111.0 |
| 20260505232047 | 2 | 180 | 1.6 | 3.2 | 0.00 | 0.00 | 0.00 | 66 | 1111.0 |
| 20260505231046 | 3 | 180 | 0.0 | 0.0 | 0.00 | 0.00 | 0.00 | 65 | 1111.0 |
| 20260505230046 | 3 | 180 | 0.0 | 0.0 | 0.00 | 0.00 | 0.00 | 64 | 1111.0 |
| 20260505225045 | 3 | 180 | 3.2 | 3.2 | 0.00 | 0.00 | 0.00 | 64 | 1111.0 |
| 20260505224045 | 3 | 180 | 0.0 | 0.0 | 0.00 | 0.00 | 0.00 | 63 | 1111.0 |
| 20260505223044 | 3 | 180 | 0.0 | 0.0 | 0.00 | 0.00 | 0.00 | 62 | 1111.0 |
| 20260505222043 | 4 | 180 | 0.0 | 0.0 | 0.00 | 0.00 | 0.00 | 61 | 1111.0 |
| 20260505221043 | 4 | 180 | 0.0 | 0.0 | 0.00 | 0.00 | 0.00 | 61 | 1111.0 |
| 20260505220042 | 5 | 180 | 0.0 | 0.0 | 0.00 | 0.00 | 0.00 | 61 | 1111.0 |
| 20260505215042 | 5 | 180 | 0.0 | 1.6 | 0.00 | 0.00 | 0.00 | 60 | 1111.0 |
| 20260505214041 | 5 | 180 | 0.0 | 0.0 | 0.00 | 0.00 | 0.00 | 60 | 1111.0 |
| 20260505213041 | 5 | 180 | 0.0 | 0.0 | 0.00 | 0.00 | 0.00 | 59 | 1111.0 |
| 20260505212040 | 6 | 180 | 0.0 | 0.0 | 0.00 | 0.00 | 0.00 | 59 | 1111.0 |
| 20260505211742 | 6 | 180 | 0.0 | 0.0 | 0.00 | 0.00 | 0.00 | 59 | 1111.0 |
| 20260505211039 | 6 | 180 | 0.0 | 0.0 | 0.00 | 0.00 | 0.00 | 59 | 1111.0 |
| 20260505210039 | 6 | 180 | 0.0 | 1.6 | 0.00 | 0.00 | 0.00 | 59 | 1111.0 |
| 20260505205038 | 6 | 180 | 1.6 | 1.6 | 0.00 | 0.00 | 0.00 | 59 | 1111.0 |
| 20260505204038 | 7 | 180 | 0.0 | 1.6 | 0.00 | 0.00 | 0.00 | 58 | 1111.0 |
| 20260505203037 | 7 | 202 | 0.0 | 0.0 | 0.00 | 0.00 | 0.00 | 57 | 1111.0 |
| 20260505202037 | 7 | 180 | 0.0 | 0.0 | 0.00 | 0.00 | 0.00 | 57 | 1111.0 |
| 20260505201036 | 7 | 180 | 0.0 | 1.6 | 0.00 | 0.00 | 0.00 | 57 | 1111.0 |
| 20260505200035 | 7 | 180 | 0.0 | 0.0 | 0.00 | 0.00 | 0.00 | 56 | 1111.0 |
| 20260505195035 | 8 | 202 | 0.0 | 3.2 | 0.00 | 0.00 | 0.00 | 55 | 1111.0 |
| 20260505194034 | 8 | 202 | 0.0 | 0.0 | 0.00 | 0.00 | 0.00 | 53 | 1111.0 |
| 20260505193034 | 9 | 202 | 0.0 | 0.0 | 0.00 | 0.00 | 0.00 | 52 | 1111.0 |
| 20260505192033 | 10 | 202 | 0.0 | 1.6 | 0.00 | 0.00 | 0.00 | 51 | 1111.0 |
| 20260505191033 | 10 | 202 | 0.0 | 0.0 | 0.00 | 0.00 | 0.00 | 50 | 1111.0 |
| 20260505190032 | 10 | 202 | 0.0 | 0.0 | 0.00 | 0.00 | 0.00 | 49 | 1111.0 |
| 20260505185031 | 11 | 202 | 0.0 | 0.0 | 0.00 | 0.00 | 0.00 | 48 | 1111.0 |
| 20260505184031 | 11 | 202 | 0.0 | 0.0 | 0.00 | 0.00 | 0.00 | 47 | 1111.0 |
| 20260505183030 | 11 | 202 | 0.0 | 0.0 | 0.00 | 0.00 | 0.00 | 46 | 1111.0 |
| 20260505182030 | 12 | 202 | 3.2 | 3.2 | 0.00 | 0.00 | 0.00 | 43 | 1111.0 |
| 20260505181029 | 13 | 202 | 3.2 | 3.2 | 0.00 | 0.00 | 0.00 | 41 | 1111.0 |
| 20260505180029 | 13 | 202 | 0.0 | 0.0 | 0.00 | 0.00 | 0.00 | 40 | 1111.0 |
| 20260505175028 | 15 | 202 | 0.0 | 0.0 | 0.00 | 0.00 | 0.00 | 38 | 1111.0 |
| 20260505174027 | 15 | 202 | 0.0 | 0.0 | 0.00 | 0.00 | 0.00 | 38 | 1111.0 |
| 20260505173027 | 16 | 202 | 0.0 | 0.0 | 0.00 | 0.00 | 0.00 | 35 | 1111.0 |
| 20260505172026 | 17 | 247 | 0.0 | 0.0 | 0.00 | 0.00 | 0.00 | 34 | 1111.0 |
| 20260505171026 | 18 | 247 | 0.0 | 0.0 | 0.00 | 0.00 | 0.00 | 32 | 1111.0 |
| 20260505170025 | 19 | 247 | 0.0 | 0.0 | 0.00 | 0.00 | 0.00 | 31 | 1111.0 |
| 20260505165025 | 20 | 202 | 0.0 | 1.6 | 0.00 | 0.00 | 0.00 | 29 | 1111.0 |
| 20260505164024 | 21 | 202 | 6.4 | 6.4 | 0.00 | 0.00 | 0.00 | 28 | 1111.0 |
| 20260505163023 | 22 | 270 | 3.2 | 4.8 | 0.00 | 0.00 | 0.00 | 26 | 1111.0 |
| 20260505162023 | 23 | 292 | 1.6 | 8.0 | 0.00 | 0.00 | 0.00 | 27 | 1111.0 |
| 20260505161325 | 24 | 225 | 8.0 | 9.7 | 0.00 | 0.00 | 0.00 | 25 | 1111.0 |
| 20260505161022 | 25 | 270 | 3.2 | 3.2 | 0.00 | 0.00 | 0.00 | 25 | 1111.0 |
| 20260505153020 | 26 | 202 | 1.6 | 4.8 | 0.00 | 0.00 | 0.00 | 26 | 1111.0 |
| 20260505152019 | 26 | 315 | 1.6 | 1.6 | 0.00 | 0.00 | 0.00 | 26 | 1111.0 |
| 20260505151019 | 26 | 315 | 0.0 | 0.0 | 0.00 | 0.00 | 0.00 | 26 | 1111.0 |
| 20260505125011 | 25 | 0 | 0.0 | 3.2 | 0.00 | 0.00 | 0.00 | 24 | 1111.0 |
| 20260505124010 | 25 | 315 | 3.2 | 4.8 | 0.00 | 0.00 | 0.00 | 25 | 1111.0 |
| 20260505123010 | 25 | 292 | 4.8 | 4.8 | 0.00 | 0.00 | 0.00 | 25 | 1111.0 |
| 20260505122009 | 25 | 270 | 0.0 | 0.0 | 0.00 | 0.00 | 0.00 | 22 | 1111.0 |
| 20260505121009 | 25 | 45 | 0.0 | 6.4 | 0.00 | 0.00 | 0.00 | 20 | 1111.0 |
| 20260505120008 | 26 | 337 | 9.7 | 14.5 | 0.00 | 0.00 | 0.00 | 20 | 1111.0 |